Bei uns kannst du mitfliegen! Besuche uns und lerne uns kennen - als Gast, Pilot oder jemand der es werden möchte.

Kölner Klub für Luftsport e.V.

KKFL.de

Ausbildung – Fliegen – Abenteuer

Ausbildung im KKFL

Ausbildung

Fliegen lernen im Verein
Der KKFL.de bietet eine effiziente, schnelle Ausbildung zur Pivatpilotenlizenz (PPL) in verschiedenen Ausprägungen an. Nach der Ausbildung können diverse Ergänzungen vom Verstellpropeller bis hin zu Nachtflug oder das Fliegen nach Instrumentenflugregeln (IFR) angeschlossen werden.
Fliegen im Verein ist günstig!

Unsere Flotte

Cessna 172 S

D-EOCD
Die Cessna ist als schnelle Schul- und Reisemaschine gleichsam beliebt. Unsere vereins-eigene Flotte sorgt für Abwechlung bei den Piloten und unsere Werft senkt Kosten. In der Ausbildung dürfen Schüler über 'ihre Maschine' mit entscheiden.

Cessna 172 R

D-EFPB

Piper PA 28 II

D-EFPA

Aquila A210

D-EAQJ

Piper PA 28 II

D-ELFF

Flugplatz Hangelar


[Quelle: ADDS]
METAR
EDDK 251620Z 25018KT 9999 -SHRA FEW023 FEW030CB BKN041 07/03 Q0999 TEMPO SHRA =
EDDK 251100Z 2512/2618 26015G25KT 9999 SCT030 TEMPO 2512/2515 26020G30KT BECMG 2515/2517 24010KT TEMPO 2516/2609 SHRA BKN020CB PROB30 TEMPO 2517/2522 25015G25KT 3000 TSRAGS PROB40 TEMPO 2601/2609 25020G30KT 2500 SHSN BKN014CB TEMPO 2612/2618 27015G25KT SHRA BKN012CB
TAF
EDDK 251100Z 2512/2618 26015G25KT 9999 SCT030 TEMPO 2512/2515 26020G30KT BECMG 2515/2517 24010KT TEMPO 2516/2609 SHRA BKN020CB PROB30 TEMPO 2517/2522 25015G25KT 3000 TSRAGS PROB40 TEMPO 2601/2609 25020G30KT 2500 SHSN BKN014CB TEMPO 2612/2618 27015G25KT SHRA BKN012CB =
SR / SS: 06:24 / 17:04 UTC (EDKB 2020-02-25)

Du willst fliegen?

Während unserer Bürozeiten und auch dazwischen sind wir für deine Fragen da.
Bitte kontaktiere den Verein unter den angegebenen Adressen.
© 2020 - Kölner Klub für Luftsport e.V.
Bonn / Hangelar - EDKB - Germany
Cookies erleichtern die Bereitstellung unserer Dienste. Mit der Nutzung unserer Dienste erklären Sie sich damit einverstanden, dass wir Cookies verwenden.